Regional Weather Roundup
Issued by NWS

Home | Current Version | Previous Version | Text Only | Print | Product List | Glossary Off
Versions: 1 2 3 4 5 6 7 8 9 10 11 12 13 14 15 16 17 18 19 20 21 22 23 24 25 26 27 28 29 30 31 32 33 34 35 36 37 38 39 40 41 42 43 44 45 46 47 48 49 50

000
ASUS43 KLMK 302110
RWRKY
KENTUCKY REGIONAL WEATHER ROUNDUP
NATIONAL WEATHER SERVICE LOUISVILLE KY
500 PM EDT THU MAR 30 2017

NOTE "FAIR" INDICATES FEW OR NO CLOUDS BELOW 12,000 FEET
WITH NO SIGNIFICANT WEATHER AND/OR OBSTRUCTIONS TO VISIBILITY.

KYZ001>023-026-027-061>063-070>075-302200-
WESTERN AND SOUTH CENTRAL KENTUCKY

CITY           SKY/WX    TMP DP  RH WIND       PRES   REMARKS
PADUCAH        CLOUDY    64  58  80 SW10G24   29.57S
HENDERSON      PTSUNNY   73  54  49 S20G32    29.53F
OWENSBORO      NOT AVBL
HOPKINSVILLE   CLOUDY    75  52  44 SW25G39   29.60F
BOWLING GREEN  CLOUDY    77  56  48 S15G28    29.63F
GLASGOW        CLOUDY    76  53  44 SW17G30   29.63F
$$

KYZ024-025-028>034-038-045-046-053-302200-
NORTH CENTRAL KENTUCKY

CITY           SKY/WX    TMP DP  RH WIND       PRES   REMARKS
LOUISVILLE/SDF LGT RAIN  79  50  36 S24G38    29.59F
LOUISVILLE/LOU CLOUDY    78  52  40 S15G33    29.60F
FORT KNOX      CLOUDY    76  55  48 S18G26    29.59F
$$

KYZ035>037-039>044-047>052-055>060-089>105-302200-
NORTHEAST KENTUCKY

CITY           SKY/WX    TMP DP  RH WIND       PRES   REMARKS
LEXINGTON      CLOUDY    78  47  33 SW15      29.63F
COVINGTON      CLOUDY    76  50  40 S14G26    29.61F
FRANKFORT      CLOUDY    78  47  33 S18G26    29.61F
$$

KYZ054-064>069-076>088-106>120-302200-
SOUTHEAST KENTUCKY

CITY           SKY/WX    TMP DP  RH WIND       PRES   REMARKS
JACKSON        CLOUDY    78  49  35 S10G24    29.70F
LONDON         CLOUDY    78  46  32 S18G28    29.68F
SOMERSET       CLOUDY    79  41  25 SW15G28   29.68S
MIDDLESBORO    CLOUDY    79  50  36 S10G21    29.72F
MONTICELLO     PTCLDY    78  49  35 S13G21    29.68
$$





USA.gov is the U.S. government's official web portal to all federal, state and local government web resources and services.